TimeCST,TemperatureF,Dew PointF,Humidity,Sea Level PressureIn,VisibilityMPH,Wind Direction,Wind SpeedMPH,Gust SpeedMPH,PrecipitationIn,Events,Conditions,WindDirDegrees,DateUTC
12:15 AM,46.4,32.0,57,30.05,10.0,ESE,3.5,-,N/A,,Clear,110,2012-12-15 06:15:00
12:35 AM,46.4,33.8,62,30.04,10.0,SE,3.5,-,N/A,,Scattered Clouds,130,2012-12-15 06:35:00
12:55 AM,46.4,32.0,57,30.03,10.0,ESE,3.5,-,N/A,,Mostly Cloudy,120,2012-12-15 06:55:00
1:15 AM,46.4,33.8,62,30.03,10.0,SSE,4.6,-,N/A,,Mostly Cloudy,150,2012-12-15 07:15:00
1:35 AM,46.4,33.8,62,30.02,10.0,East,4.6,-,N/A,,Overcast,100,2012-12-15 07:35:00
1:55 AM,46.4,33.8,62,30.02,10.0,SE,4.6,-,N/A,,Overcast,130,2012-12-15 07:55:00
2:15 AM,46.4,33.8,62,30.01,10.0,SE,5.8,-,N/A,,Mostly Cloudy,140,2012-12-15 08:15:00
2:35 AM,46.4,35.6,66,30.00,10.0,SSE,6.9,-,N/A,,Mostly Cloudy,150,2012-12-15 08:35:00
2:55 AM,46.4,35.6,66,29.99,10.0,SSE,8.1,-,N/A,,Overcast,150,2012-12-15 08:55:00
3:15 AM,46.4,35.6,66,30.01,10.0,SSW,4.6,-,N/A,,Overcast,200,2012-12-15 09:15:00
3:35 AM,44.6,37.4,76,30.00,10.0,Calm,Calm,-,0.01,,Overcast,0,2012-12-15 09:35:00
3:55 AM,44.6,39.2,81,29.98,7.0,SE,5.8,-,0.03,,Overcast,130,2012-12-15 09:55:00
4:15 AM,44.6,39.2,81,29.98,9.0,SSE,5.8,-,0.02,,Overcast,150,2012-12-15 10:15:00
4:35 AM,46.4,41.0,81,29.96,10.0,SE,8.1,-,0.03,,Overcast,140,2012-12-15 10:35:00
4:55 AM,46.4,41.0,81,29.94,9.0,SE,8.1,-,0.04,,Overcast,130,2012-12-15 10:55:00
5:15 AM,46.4,42.8,87,29.92,10.0,SSE,12.7,17.3,0.02,,Overcast,150,2012-12-15 11:15:00
5:35 AM,46.4,42.8,87,29.91,10.0,SSE,11.5,19.6,0.02,,Overcast,150,2012-12-15 11:35:00
5:55 AM,46.4,42.8,87,29.91,10.0,SSE,10.4,-,0.02,,Overcast,160,2012-12-15 11:55:00
6:15 AM,46.4,42.8,87,29.92,9.0,South,6.9,-,0.01,,Overcast,180,2012-12-15 12:15:00
6:35 AM,46.4,42.8,87,29.93,10.0,SSE,10.4,-,0.04,,Overcast,160,2012-12-15 12:35:00
6:55 AM,46.4,44.6,93,29.92,10.0,SSE,8.1,-,0.10,,Overcast,160,2012-12-15 12:55:00
7:15 AM,46.4,42.8,87,29.90,10.0,SE,9.2,-,0.01,,Overcast,140,2012-12-15 13:15:00
7:35 AM,46.4,44.6,93,29.89,10.0,SE,12.7,17.3,0.01,,Overcast,140,2012-12-15 13:35:00
7:55 AM,46.4,44.6,93,29.87,10.0,SE,11.5,17.3,0.01,,Overcast,140,2012-12-15 13:55:00
8:15 AM,48.2,44.6,87,29.86,10.0,SE,11.5,18.4,N/A,,Overcast,140,2012-12-15 14:15:00
8:35 AM,48.2,44.6,87,29.83,10.0,SSE,15.0,20.7,N/A,,Overcast,160,2012-12-15 14:35:00
8:55 AM,48.2,42.8,82,29.84,10.0,South,15.0,24.2,N/A,,Overcast,170,2012-12-15 14:55:00
9:15 AM,50.0,44.6,82,29.83,10.0,South,13.8,23.0,N/A,,Overcast,180,2012-12-15 15:15:00
9:35 AM,50.0,44.6,82,29.83,10.0,South,17.3,21.9,N/A,,Overcast,180,2012-12-15 15:35:00
9:55 AM,51.8,44.6,76,29.82,10.0,South,21.9,31.1,N/A,,Overcast,190,2012-12-15 15:55:00
10:15 AM,51.8,44.6,76,29.82,10.0,South,19.6,34.5,N/A,,Overcast,190,2012-12-15 16:15:00
10:35 AM,51.8,46.4,82,29.82,10.0,South,20.7,27.6,N/A,,Overcast,180,2012-12-15 16:35:00
10:55 AM,51.8,46.4,82,29.80,10.0,South,17.3,27.6,N/A,,Overcast,180,2012-12-15 16:55:00
11:15 AM,51.8,46.4,82,29.79,10.0,South,18.4,34.5,N/A,,Overcast,190,2012-12-15 17:15:00
11:35 AM,51.8,46.4,82,29.78,10.0,South,20.7,27.6,N/A,,Overcast,190,2012-12-15 17:35:00
11:55 AM,51.8,48.2,88,29.77,10.0,South,19.6,26.5,N/A,,Overcast,190,2012-12-15 17:55:00
12:15 PM,51.8,48.2,88,29.76,10.0,South,18.4,26.5,N/A,,Overcast,190,2012-12-15 18:15:00
12:35 PM,51.8,48.2,88,29.75,7.0,South,16.1,25.3,N/A,,Overcast,190,2012-12-15 18:35:00
12:55 PM,53.6,48.2,82,29.74,10.0,South,20.7,26.5,N/A,,Overcast,190,2012-12-15 18:55:00
1:15 PM,53.6,50.0,88,29.72,10.0,South,19.6,26.5,N/A,,Overcast,190,2012-12-15 19:15:00
1:35 PM,55.4,50.0,82,29.71,10.0,South,24.2,28.8,N/A,,Overcast,190,2012-12-15 19:35:00
1:55 PM,55.4,51.8,88,29.70,10.0,SSW,20.7,26.5,N/A,,Overcast,200,2012-12-15 19:55:00
2:15 PM,55.4,51.8,88,29.70,10.0,SSW,21.9,29.9,N/A,,Overcast,200,2012-12-15 20:15:00
2:35 PM,57.2,51.8,82,29.69,10.0,SSW,23.0,29.9,N/A,,Overcast,200,2012-12-15 20:35:00
2:55 PM,57.2,51.8,82,29.70,10.0,SSW,21.9,31.1,N/A,,Overcast,210,2012-12-15 20:55:00
3:15 PM,57.2,51.8,82,29.70,10.0,SSW,23.0,33.4,N/A,,Overcast,200,2012-12-15 21:15:00
3:35 PM,57.2,51.8,82,29.70,10.0,SSW,20.7,29.9,N/A,,Overcast,210,2012-12-15 21:35:00
3:55 PM,57.2,50.0,77,29.71,10.0,SSW,23.0,31.1,N/A,,Overcast,200,2012-12-15 21:55:00
4:15 PM,57.2,50.0,77,29.71,10.0,SSW,18.4,28.8,N/A,,Mostly Cloudy,200,2012-12-15 22:15:00
4:35 PM,57.2,50.0,77,29.71,10.0,SSW,19.6,26.5,N/A,,Overcast,200,2012-12-15 22:35:00
4:55 PM,55.4,50.0,82,29.72,10.0,SSW,17.3,21.9,N/A,,Overcast,200,2012-12-15 22:55:00
5:15 PM,55.4,50.0,82,29.72,10.0,SSW,16.1,21.9,N/A,,Overcast,200,2012-12-15 23:15:00
5:35 PM,55.4,50.0,82,29.72,10.0,SSW,17.3,23.0,N/A,,Overcast,200,2012-12-15 23:35:00
5:55 PM,55.4,48.2,77,29.73,10.0,SSW,15.0,20.7,N/A,,Overcast,200,2012-12-15 23:55:00
6:15 PM,55.4,50.0,82,29.73,10.0,SSW,17.3,-,N/A,,Overcast,200,2012-12-16 00:15:00
6:35 PM,55.4,50.0,82,29.73,10.0,SSW,16.1,-,N/A,,Mostly Cloudy,200,2012-12-16 00:35:00
6:55 PM,55.4,50.0,82,29.73,10.0,SSW,17.3,-,N/A,,Partly Cloudy,200,2012-12-16 00:55:00
7:15 PM,55.4,50.0,82,29.74,10.0,SSW,17.3,21.9,N/A,,Partly Cloudy,200,2012-12-16 01:15:00
7:35 PM,55.4,50.0,82,29.74,10.0,SSW,16.1,-,N/A,,Mostly Cloudy,200,2012-12-16 01:35:00
7:55 PM,55.4,50.0,82,29.75,10.0,SSW,15.0,-,N/A,,Overcast,200,2012-12-16 01:55:00
8:15 PM,55.4,50.0,82,29.75,10.0,SSW,12.7,-,N/A,,Overcast,200,2012-12-16 02:15:00
8:35 PM,55.4,50.0,82,29.75,10.0,SSW,12.7,-,N/A,,Overcast,210,2012-12-16 02:35:00
8:55 PM,53.6,50.0,88,29.75,10.0,SSW,10.4,-,N/A,,Mostly Cloudy,210,2012-12-16 02:55:00
9:15 PM,53.6,48.2,82,29.75,10.0,SSW,9.2,-,N/A,,Scattered Clouds,210,2012-12-16 03:15:00
9:35 PM,53.6,48.2,82,29.75,10.0,SSW,9.2,-,N/A,,Partly Cloudy,210,2012-12-16 03:35:00
9:55 PM,53.6,48.2,82,29.75,10.0,SSW,10.4,-,N/A,,Clear,210,2012-12-16 03:55:00
10:15 PM,53.6,48.2,82,29.75,10.0,SSW,11.5,-,N/A,,Clear,210,2012-12-16 04:15:00
10:35 PM,53.6,50.0,88,29.75,10.0,SSW,11.5,-,N/A,,Partly Cloudy,210,2012-12-16 04:35:00
10:55 PM,53.6,48.2,82,29.75,10.0,SW,11.5,-,N/A,,Partly Cloudy,220,2012-12-16 04:55:00
11:15 PM,53.6,50.0,88,29.74,10.0,SW,10.4,-,N/A,,Partly Cloudy,220,2012-12-16 05:15:00
11:35 PM,51.8,48.2,88,29.74,10.0,SW,9.2,-,N/A,,Scattered Clouds,220,2012-12-16 05:35:00
11:55 PM,51.8,48.2,88,29.74,9.0,SSW,6.9,-,N/A,,Partly Cloudy,210,2012-12-16 05:55:00